カタログに戻る

AISHENXING LSP 1

運用中科学SSO
NORAD 60014·PAYLOAD·🇨🇳 China
この衛星名は、まだ公式ソースで確認されていません。

打ち上げ Jun 6, 2024 から Jiuquan Satellite Launch Center

Loading…

次のパス (今後24時間)

TLE

古いSource: Space-Track

元期: Aug 24, 2026, 07:03 UTC

1 60014U 24110C   26236.29396498  .00001738  00000-0  15034-3 0  9993
2 60014  97.5420 309.3147 0009309 280.0498  79.9675 14.98408334112000

AllMySatでAISHENXING LSP 1をリアルタイム追跡

Download on the App Store